User: anonymous   Login
Location: Igon
(43.1667°N, 0.2333°W)
Time: 10:50:56
(UTC+00:00)
Language:

Sich 1 - Orbit

View from above orbital plane
View from above orbital plane
View from above satellite
View from above satellite

Ground track
Ground track

The orbit data is extracted from the following two-line orbital elements,

1 23657U 95046A   21063.93501994  .00000258  00000-0  26509-4 0  9990
2 23657  82.5246  65.8409 0020417 269.6763  90.2114 14.86254258378669
Epoch (UTC): 04 March 2021 22:26:25
Eccentricity: 0.0020417
inclination: 82.5246°
perigee height: 595 km
apogee height: 624 km
right ascension of ascending node: 65.8409°
argument of perigee: 269.6763°
revolutions per day: 14.86254258
mean anomaly at epoch: 90.2114°
orbit number at epoch: 37866

The dashed part of the orbit path shows where the satellite is in the earth's shadow,  

DLR